AAL3254 MMSD-KDFW

Flight info

Callsign AAL3254
Flight time N/A
Altitude 35000
Route UKUXA1A UKUXA DCT CUU DCT AMUKI J42 FST DCT GEEKY BOOVE7
Aircraft B738/M-SDE2E3FGHIRWXY/LB1

Departure

Time 2026-05-05 18:07
Airport Los Cabos International Airport (MMSD)

Arrival

Time N/A
Airport Dallas Fort Worth International Airport (KDFW)
Time Latitude Longitude Altitude Speed Heading
2026-05-05 17:52 23.15906 -109.71804 364 ft 0 kts 84°
2026-05-05 18:00 23.15906 -109.71808 364 ft 3 kts 83°
2026-05-05 18:01 23.15900 -109.71835 364 ft 4 kts 64°
2026-05-05 18:01 23.15885 -109.71857 367 ft 4 kts 25°
2026-05-05 18:01 23.15871 -109.71861 364 ft 0 kts 354°
2026-05-05 18:03 23.15907 -109.71865 364 ft 13 kts 354°
2026-05-05 18:03 23.16016 -109.71878 370 ft 16 kts 353°
2026-05-05 18:03 23.16121 -109.71894 367 ft 14 kts 334°
2026-05-05 18:04 23.16161 -109.71977 370 ft 13 kts 336°
2026-05-05 18:04 23.16251 -109.71989 374 ft 13 kts 354°
2026-05-05 18:04 23.16340 -109.71999 379 ft 13 kts 354°
2026-05-05 18:04 23.16430 -109.72009 385 ft 15 kts 354°
2026-05-05 18:05 23.16536 -109.72020 389 ft 15 kts 354°
2026-05-05 18:05 23.16613 -109.72060 391 ft 12 kts 281°
2026-05-05 18:05 23.16604 -109.72153 391 ft 13 kts 252°
2026-05-05 18:05 23.16539 -109.72219 391 ft 11 kts 199°
2026-05-05 18:06 23.16450 -109.72216 389 ft 21 kts 174°
2026-05-05 18:06 23.16239 -109.72192 384 ft 70 kts 174°
2026-05-05 18:06 23.15192 -109.72073 356 ft 154 kts 174°
2026-05-05 18:06 23.14060 -109.71957 784 ft 169 kts 171°
2026-05-05 18:07 23.12868 -109.71797 1473 ft 174 kts 169°
2026-05-05 18:07 23.11642 -109.71527 2008 ft 193 kts 160°
2026-05-05 18:07 23.10312 -109.70923 2208 ft 220 kts 150°
2026-05-05 18:07 23.09068 -109.69846 2491 ft 237 kts 134°
2026-05-05 18:08 23.07982 -109.68458 2974 ft 244 kts 124°
2026-05-05 18:08 23.07215 -109.66837 3638 ft 246 kts 107°
2026-05-05 18:08 23.06909 -109.64954 4079 ft 265 kts 89°
2026-05-05 18:08 23.07130 -109.62940 4749 ft 274 kts 76°
2026-05-05 18:09 23.07606 -109.60910 5518 ft 279 kts 73°
2026-05-05 18:09 23.08125 -109.58862 6241 ft 285 kts 74°
2026-05-05 18:09 23.08648 -109.56751 6930 ft 291 kts 75°
2026-05-05 18:09 23.09162 -109.54613 7627 ft 295 kts 75°
2026-05-05 18:10 23.09669 -109.52433 7967 ft 299 kts 76°
2026-05-05 18:10 23.10172 -109.50216 7988 ft 304 kts 76°
2026-05-05 18:10 23.10671 -109.47987 7996 ft 302 kts 76°
2026-05-05 18:10 23.11159 -109.45783 7996 ft 299 kts 76°
2026-05-05 18:11 23.11643 -109.43601 8000 ft 297 kts 76°
2026-05-05 18:11 23.12124 -109.41422 8004 ft 296 kts 76°
2026-05-05 18:11 23.12604 -109.39246 8008 ft 296 kts 76°
2026-05-05 18:11 23.13084 -109.37066 8010 ft 297 kts 76°
2026-05-05 18:12 23.13562 -109.34879 8029 ft 300 kts 77°
2026-05-05 18:12 23.14029 -109.32647 8486 ft 306 kts 77°
2026-05-05 18:12 23.14502 -109.30385 9186 ft 308 kts 77°
2026-05-05 18:12 23.14974 -109.28105 9856 ft 311 kts 76°
2026-05-05 18:13 23.15728 -109.25889 10323 ft 321 kts 58°
2026-05-05 18:13 23.17018 -109.23811 10527 ft 341 kts 53°
2026-05-05 18:13 23.18424 -109.21692 11006 ft 349 kts 53°
2026-05-05 18:13 23.19861 -109.19539 11596 ft 354 kts 53°
2026-05-05 18:14 23.21306 -109.17353 12267 ft 357 kts 53°
2026-05-05 18:14 23.22754 -109.15139 12923 ft 361 kts 53°
2026-05-05 18:14 23.24212 -109.12893 13552 ft 366 kts 54°
2026-05-05 18:14 23.25680 -109.10616 14181 ft 370 kts 54°
2026-05-05 18:15 23.27163 -109.08310 14814 ft 374 kts 54°
2026-05-05 18:15 23.28664 -109.05973 15435 ft 379 kts 55°
2026-05-05 18:15 23.30184 -109.03604 16064 ft 384 kts 55°
2026-05-05 18:15 23.31717 -109.01211 16731 ft 387 kts 56°
2026-05-05 18:16 23.33266 -108.98795 17312 ft 392 kts 56°
2026-05-05 18:16 23.34839 -108.96339 17845 ft 398 kts 56°
2026-05-05 18:16 23.36429 -108.93857 18441 ft 401 kts 56°
2026-05-05 18:16 23.38033 -108.91353 19012 ft 405 kts 56°
2026-05-05 18:17 23.39651 -108.88825 19565 ft 409 kts 56°
2026-05-05 18:17 23.41500 -108.86450 20056 ft 415 kts 39°
2026-05-05 18:17 23.43959 -108.84807 20593 ft 416 kts 24°
2026-05-05 18:17 23.46579 -108.83442 21137 ft 419 kts 23°
2026-05-05 18:18 23.49237 -108.82091 21607 ft 424 kts 23°
2026-05-05 18:18 23.51927 -108.80729 22071 ft 428 kts 23°
2026-05-05 18:18 23.54638 -108.79347 22540 ft 432 kts 23°
2026-05-05 18:18 23.57369 -108.77944 23016 ft 435 kts 23°
2026-05-05 18:19 23.60115 -108.76522 23480 ft 439 kts 24°
2026-05-05 18:19 23.62875 -108.75085 23920 ft 442 kts 24°
2026-05-05 18:19 23.65666 -108.73626 24339 ft 446 kts 24°
2026-05-05 18:19 23.68470 -108.72158 24742 ft 449 kts 24°
2026-05-05 18:20 23.71304 -108.70672 25134 ft 453 kts 24°
2026-05-05 18:20 23.74157 -108.69175 25523 ft 457 kts 24°
2026-05-05 18:20 23.77031 -108.67668 25883 ft 461 kts 24°
2026-05-05 18:20 23.79931 -108.66146 26263 ft 464 kts 24°
2026-05-05 18:21 23.82849 -108.64614 26617 ft 467 kts 24°
2026-05-05 18:21 23.85795 -108.63067 26933 ft 472 kts 24°
2026-05-05 18:21 23.88761 -108.61508 27292 ft 474 kts 24°
2026-05-05 18:21 23.91744 -108.59939 27636 ft 478 kts 24°
2026-05-05 18:22 23.94747 -108.58358 27959 ft 481 kts 24°
2026-05-05 18:22 23.97772 -108.56766 28280 ft 484 kts 24°
2026-05-05 18:22 24.00819 -108.55162 28495 ft 490 kts 24°
2026-05-05 18:22 24.03912 -108.53532 28669 ft 496 kts 24°
2026-05-05 18:23 24.07032 -108.51887 28939 ft 500 kts 24°
2026-05-05 18:23 24.10170 -108.50232 29281 ft 501 kts 24°
2026-05-05 18:23 24.13318 -108.48568 29592 ft 504 kts 24°
2026-05-05 18:23 24.16481 -108.46896 29878 ft 507 kts 24°
2026-05-05 18:24 24.19665 -108.45214 30140 ft 510 kts 24°
2026-05-05 18:24 24.22867 -108.43522 30410 ft 512 kts 24°
2026-05-05 18:24 24.26082 -108.41822 30734 ft 513 kts 24°
2026-05-05 18:24 24.29299 -108.40121 31053 ft 514 kts 24°
2026-05-05 18:25 24.32528 -108.38411 31336 ft 516 kts 25°
2026-05-05 18:25 24.33575 -108.37857 31442 ft 516 kts 25°
2026-05-05 18:25 24.38978 -108.34991 32090 ft 514 kts 25°
2026-05-05 18:25 24.42191 -108.33286 32510 ft 511 kts 25°
2026-05-05 18:26 24.45387 -108.31589 32914 ft 510 kts 24°
2026-05-05 18:26 24.48576 -108.29897 33263 ft 509 kts 24°
2026-05-05 18:26 24.51760 -108.28206 33610 ft 508 kts 24°
2026-05-05 18:26 24.54941 -108.26516 33914 ft 508 kts 24°
2026-05-05 18:27 24.58116 -108.24827 34242 ft 507 kts 24°
2026-05-05 18:27 24.61290 -108.23137 34557 ft 506 kts 24°
2026-05-05 18:27 24.64453 -108.21452 34888 ft 505 kts 24°
2026-05-05 18:27 24.67623 -108.19762 35014 ft 507 kts 24°
2026-05-05 18:28 24.73958 -108.16383 35008 ft 504 kts 24°
2026-05-05 18:28 24.80260 -108.13018 35008 ft 503 kts 24°
2026-05-05 18:29 24.86553 -108.09656 35012 ft 503 kts 24°
2026-05-05 18:29 24.92846 -108.06288 35023 ft 503 kts 23°
2026-05-05 18:30 24.99155 -108.02908 35021 ft 505 kts 23°
2026-05-05 18:30 25.05478 -107.99517 35018 ft 506 kts 23°
2026-05-05 18:31 25.10738 -107.96692 35028 ft 506 kts 23°
2026-05-05 18:31 25.18114 -107.92728 35029 ft 508 kts 23°
2026-05-05 18:32 25.24479 -107.89307 35026 ft 509 kts 23°
2026-05-05 18:32 25.29811 -107.86422 35024 ft 509 kts 23°
2026-05-05 18:33 25.36184 -107.82984 35027 ft 510 kts 23°
2026-05-05 18:33 25.42567 -107.79544 35028 ft 511 kts 23°
2026-05-05 18:34 25.48959 -107.76089 35021 ft 512 kts 23°
2026-05-05 18:34 25.55352 -107.72628 35033 ft 512 kts 23°
2026-05-05 18:35 25.61706 -107.69184 35037 ft 512 kts 23°
2026-05-05 18:35 25.68098 -107.65715 35037 ft 512 kts 23°
2026-05-05 18:36 25.74495 -107.62240 35050 ft 512 kts 23°
2026-05-05 18:36 25.80888 -107.58759 35032 ft 512 kts 22°
2026-05-05 18:37 25.87285 -107.55281 35052 ft 512 kts 23°
2026-05-05 18:37 25.93683 -107.51790 35058 ft 512 kts 23°
2026-05-05 18:38 26.00080 -107.48297 35071 ft 512 kts 23°
2026-05-05 18:38 26.06473 -107.44805 35069 ft 512 kts 23°
2026-05-05 18:39 26.12868 -107.41299 35075 ft 512 kts 22°
2026-05-05 18:39 26.19260 -107.37787 35104 ft 512 kts 22°
2026-05-05 18:40 26.25681 -107.34357 35098 ft 512 kts 22°
2026-05-05 18:40 26.32067 -107.30831 35111 ft 512 kts 23°
2026-05-05 18:41 26.38441 -107.27281 35127 ft 511 kts 22°
2026-05-05 18:41 26.44808 -107.23749 35135 ft 511 kts 22°
2026-05-05 18:42 26.51186 -107.20252 35111 ft 510 kts 22°
2026-05-05 18:42 26.57519 -107.16742 35152 ft 508 kts 22°
2026-05-05 18:43 26.63863 -107.13244 35165 ft 509 kts 22°
2026-05-05 18:43 26.70239 -107.09723 35155 ft 512 kts 22°
2026-05-05 18:44 26.76619 -107.06182 35167 ft 512 kts 22°
2026-05-05 18:44 26.83004 -107.02636 35175 ft 513 kts 22°
2026-05-05 18:45 26.89402 -106.99084 35189 ft 513 kts 22°
2026-05-05 18:45 26.95795 -106.95529 35191 ft 513 kts 22°
2026-05-05 18:46 27.02196 -106.91963 35191 ft 513 kts 22°
2026-05-05 18:46 27.08588 -106.88399 35199 ft 513 kts 21°
2026-05-05 18:47 27.14986 -106.84827 35194 ft 514 kts 22°
2026-05-05 18:47 27.21431 -106.81224 35188 ft 514 kts 21°
2026-05-05 18:48 27.27826 -106.77645 35200 ft 513 kts 21°
2026-05-05 18:48 27.34220 -106.74065 35196 ft 514 kts 21°
2026-05-05 18:49 27.40620 -106.70473 35191 ft 514 kts 21°
2026-05-05 18:49 27.47015 -106.66877 35189 ft 514 kts 21°
2026-05-05 18:50 27.53418 -106.63273 35186 ft 514 kts 21°
2026-05-05 18:50 27.59813 -106.59667 35178 ft 514 kts 21°
2026-05-05 18:51 27.66211 -106.56059 35175 ft 514 kts 21°
2026-05-05 18:51 27.72600 -106.52452 35175 ft 514 kts 21°
2026-05-05 18:52 27.78996 -106.48832 35165 ft 514 kts 21°
2026-05-05 18:52 27.85381 -106.45217 35156 ft 514 kts 21°
2026-05-05 18:53 27.91773 -106.41593 35151 ft 514 kts 21°
2026-05-05 18:53 27.98169 -106.37960 35138 ft 515 kts 21°
2026-05-05 18:54 28.04569 -106.34320 35119 ft 515 kts 21°
2026-05-05 18:54 28.10971 -106.30676 35122 ft 515 kts 21°
2026-05-05 18:55 28.17376 -106.27026 35107 ft 516 kts 21°
2026-05-05 18:55 28.23787 -106.23363 35101 ft 516 kts 21°
2026-05-05 18:56 28.30197 -106.19697 35099 ft 516 kts 21°
2026-05-05 18:56 28.36616 -106.16023 35085 ft 517 kts 21°
2026-05-05 18:57 28.43037 -106.12341 35085 ft 517 kts 21°
2026-05-05 18:57 28.49459 -106.08653 35072 ft 517 kts 21°
2026-05-05 18:58 28.55873 -106.04966 35080 ft 516 kts 21°
2026-05-05 18:58 28.62274 -106.01279 35073 ft 515 kts 21°
2026-05-05 18:59 28.68586 -105.97380 35063 ft 522 kts 31°
2026-05-05 18:59 28.71376 -105.94712 35082 ft 526 kts 43°
2026-05-05 18:59 28.73782 -105.91555 35073 ft 529 kts 53°
2026-05-05 19:00 28.77478 -105.84331 35052 ft 528 kts 63°
2026-05-05 19:00 28.80941 -105.76960 35072 ft 528 kts 62°
2026-05-05 19:01 28.84454 -105.69602 35077 ft 528 kts 62°
2026-05-05 19:01 28.88015 -105.62263 35061 ft 529 kts 61°
2026-05-05 19:02 28.91593 -105.54919 35075 ft 529 kts 61°
2026-05-05 19:02 28.95168 -105.47561 35060 ft 530 kts 62°
2026-05-05 19:03 28.98739 -105.40192 35055 ft 531 kts 62°
2026-05-05 19:03 29.02304 -105.32814 35050 ft 531 kts 62°
2026-05-05 19:04 29.05868 -105.25423 35044 ft 530 kts 62°
2026-05-05 19:04 29.09420 -105.18046 35034 ft 529 kts 61°
2026-05-05 19:05 29.12967 -105.10668 35025 ft 530 kts 62°
2026-05-05 19:05 29.16516 -105.03276 35021 ft 530 kts 62°
2026-05-05 19:06 29.20064 -104.95867 35003 ft 531 kts 62°
2026-05-05 19:06 29.23610 -104.88448 35004 ft 531 kts 62°
2026-05-05 19:07 29.26557 -104.82272 34981 ft 531 kts 62°
2026-05-05 19:07 29.30694 -104.73586 34973 ft 531 kts 62°
2026-05-05 19:08 29.34227 -104.66154 34964 ft 531 kts 62°
2026-05-05 19:08 29.37755 -104.58719 34946 ft 530 kts 62°
2026-05-05 19:09 29.41268 -104.51297 34952 ft 529 kts 61°
2026-05-05 19:09 29.44779 -104.43876 34955 ft 529 kts 61°
2026-05-05 19:10 29.48280 -104.36453 34964 ft 529 kts 61°
2026-05-05 19:10 29.52255 -104.29391 34965 ft 526 kts 46°
2026-05-05 19:11 29.57580 -104.23762 34976 ft 518 kts 32°
2026-05-05 19:11 29.62338 -104.19572 34961 ft 520 kts 31°
2026-05-05 19:12 29.68086 -104.14501 34962 ft 522 kts 32°
2026-05-05 19:12 29.73818 -104.09353 34961 ft 524 kts 32°
2026-05-05 19:13 29.79551 -104.04153 34951 ft 525 kts 32°
2026-05-05 19:13 29.85289 -103.98935 34967 ft 526 kts 32°
2026-05-05 19:14 29.91028 -103.93714 34986 ft 526 kts 32°
2026-05-05 19:14 29.96758 -103.88495 34994 ft 525 kts 32°
2026-05-05 19:15 30.02481 -103.83277 35015 ft 524 kts 32°
2026-05-05 19:15 30.08199 -103.78058 35031 ft 523 kts 32°
2026-05-05 19:16 30.13901 -103.72845 35037 ft 522 kts 32°
2026-05-05 19:16 30.19590 -103.67632 35045 ft 522 kts 32°
2026-05-05 19:17 30.25263 -103.62420 35045 ft 521 kts 32°
2026-05-05 19:17 30.30935 -103.57213 35053 ft 520 kts 32°
2026-05-05 19:18 30.36596 -103.52004 35061 ft 520 kts 32°
2026-05-05 19:18 30.42262 -103.46782 35057 ft 520 kts 32°
2026-05-05 19:19 30.47928 -103.41554 35049 ft 521 kts 32°
2026-05-05 19:19 30.53597 -103.36314 35032 ft 521 kts 32°
2026-05-05 19:20 30.59271 -103.31060 35016 ft 522 kts 32°
2026-05-05 19:20 30.64953 -103.25792 35001 ft 523 kts 32°
2026-05-05 19:21 30.70638 -103.20513 34976 ft 523 kts 32°
2026-05-05 19:21 30.76320 -103.15225 34958 ft 523 kts 32°
2026-05-05 19:22 30.82001 -103.09932 34945 ft 523 kts 32°
2026-05-05 19:22 30.87682 -103.04631 34943 ft 523 kts 32°
2026-05-05 19:23 30.93274 -102.99196 34921 ft 528 kts 40°
2026-05-05 19:23 30.97748 -102.92361 34925 ft 535 kts 60°
2026-05-05 19:24 31.01154 -102.84660 34941 ft 535 kts 63°
2026-05-05 19:24 31.04480 -102.76919 34927 ft 533 kts 62°
2026-05-05 19:25 31.07849 -102.69221 34934 ft 532 kts 62°
2026-05-05 19:25 31.11248 -102.61557 34924 ft 532 kts 61°
2026-05-05 19:26 31.14650 -102.53899 34921 ft 531 kts 61°
2026-05-05 19:26 31.18043 -102.46237 34931 ft 531 kts 61°
2026-05-05 19:27 31.21428 -102.38569 34920 ft 531 kts 61°
2026-05-05 19:27 31.24809 -102.30886 34923 ft 531 kts 61°
2026-05-05 19:28 31.28185 -102.23198 34927 ft 532 kts 61°
2026-05-05 19:28 31.31561 -102.15499 34912 ft 532 kts 61°
2026-05-05 19:29 31.34933 -102.07794 34922 ft 532 kts 61°
2026-05-05 19:29 31.38303 -102.00079 34919 ft 533 kts 61°
2026-05-05 19:30 31.41671 -101.92352 34911 ft 533 kts 61°
2026-05-05 19:30 31.45029 -101.84625 34903 ft 532 kts 61°
2026-05-05 19:31 31.48379 -101.76901 34905 ft 531 kts 61°
2026-05-05 19:31 31.51721 -101.69186 34907 ft 530 kts 61°
2026-05-05 19:32 31.55050 -101.61482 34906 ft 530 kts 61°
2026-05-05 19:32 31.58375 -101.53773 34907 ft 529 kts 61°
2026-05-05 19:33 31.61690 -101.46066 34902 ft 529 kts 61°
2026-05-05 19:33 31.64999 -101.38360 34900 ft 529 kts 62°
2026-05-05 19:34 31.68301 -101.30658 34887 ft 528 kts 61°
2026-05-05 19:35 31.73239 -101.19100 34890 ft 528 kts 61°
2026-05-05 19:35 31.76524 -101.11390 34885 ft 528 kts 61°
2026-05-05 19:36 31.79806 -101.03673 34878 ft 528 kts 61°
2026-05-05 19:36 31.83079 -100.95961 34882 ft 527 kts 61°
2026-05-05 19:37 31.86347 -100.88243 34871 ft 527 kts 61°
2026-05-05 19:37 31.89604 -100.80536 34870 ft 526 kts 61°
2026-05-05 19:38 31.92851 -100.72834 34868 ft 525 kts 61°
2026-05-05 19:38 31.96086 -100.65147 34864 ft 523 kts 61°
2026-05-05 19:39 31.99310 -100.57473 34859 ft 522 kts 61°
2026-05-05 19:39 32.02521 -100.49809 34854 ft 521 kts 61°
2026-05-05 19:40 32.05723 -100.42148 34855 ft 521 kts 61°
2026-05-05 19:40 32.08917 -100.34491 34847 ft 520 kts 61°
2026-05-05 19:41 32.12104 -100.26834 34841 ft 520 kts 61°
2026-05-05 19:41 32.15283 -100.19183 34838 ft 519 kts 61°
2026-05-05 19:42 32.18458 -100.11526 34830 ft 519 kts 61°
2026-05-05 19:42 32.21628 -100.03864 34827 ft 519 kts 61°
2026-05-05 19:43 32.24790 -99.96199 34810 ft 519 kts 61°
2026-05-05 19:43 32.27814 -99.88459 34790 ft 522 kts 72°
2026-05-05 19:43 32.28426 -99.84253 34812 ft 519 kts 88°
2026-05-05 19:44 32.28626 -99.79994 34821 ft 519 kts 89°
2026-05-05 19:44 32.28954 -99.71459 34815 ft 520 kts 89°
2026-05-05 19:45 32.29338 -99.62905 34802 ft 522 kts 88°
2026-05-05 19:45 32.29773 -99.54345 34814 ft 522 kts 88°
2026-05-05 19:46 32.30217 -99.45775 34811 ft 523 kts 88°
2026-05-05 19:46 32.30651 -99.37180 34817 ft 524 kts 88°
2026-05-05 19:47 32.31076 -99.28564 34807 ft 526 kts 88°
2026-05-05 19:47 32.31496 -99.19918 34516 ft 530 kts 88°
2026-05-05 19:47 32.31707 -99.15508 33972 ft 530 kts 88°
2026-05-05 19:48 32.31912 -99.11222 33473 ft 528 kts 88°
2026-05-05 19:48 32.32121 -99.06849 33065 ft 524 kts 88°
2026-05-05 19:48 32.32321 -99.02621 32644 ft 520 kts 88°
2026-05-05 19:48 32.32521 -98.98366 32225 ft 517 kts 88°
2026-05-05 19:49 32.32719 -98.94135 31813 ft 514 kts 88°
2026-05-05 19:49 32.32853 -98.91295 31541 ft 511 kts 88°
2026-05-05 19:49 32.33113 -98.85760 31003 ft 507 kts 88°
2026-05-05 19:49 32.33308 -98.81612 30601 ft 504 kts 88°
2026-05-05 19:50 32.33499 -98.77488 30191 ft 501 kts 88°
2026-05-05 19:50 32.33687 -98.73385 29781 ft 498 kts 88°